| time (UTC) | temp C | wind direction | speed KPH | gust KPH | rain 1hr cm | rain 24hr cm | rain mn cm | humidity % | barometer mb |
| 20260904150718 | 38 | 219 | 11.3 | 22.5 | 0.00 | 0.00 | 0.00 | 25 | 1014.7 |
| 20260904150218 | 38 | 263 | 11.3 | 22.5 | 0.00 | 0.00 | 0.00 | 25 | 1014.7 |
| 20260904140718 | 38 | 258 | 16.1 | 27.4 | 0.00 | 0.00 | 0.00 | 25 | 1015.1 |
| 20260904133718 | 38 | 249 | 9.7 | 19.3 | 0.00 | 0.00 | 0.00 | 24 | 1015.2 |
| 20260904130718 | 37 | 232 | 9.7 | 22.5 | 0.00 | 0.00 | 0.00 | 24 | 1015.5 |
| 20260904130218 | 37 | 258 | 14.5 | 32.2 | 0.00 | 0.00 | 0.00 | 26 | 1015.4 |
| 20260904123717 | 37 | 256 | 9.7 | 32.2 | 0.00 | 0.00 | 0.00 | 25 | 1015.6 |
| 20260904120717 | 37 | 258 | 14.5 | 27.4 | 0.00 | 0.00 | 0.00 | 27 | 1015.9 |
| 20260904113218 | 36 | 236 | 8.0 | 22.5 | 0.00 | 0.00 | 0.00 | 30 | 1016.1 |
| 20260904100217 | 30 | 72 | 3.2 | 9.7 | 0.00 | 0.00 | 0.00 | 61 | 1017.2 |
| 20260904093217 | 29 | 70 | 1.6 | 9.7 | 0.00 | 0.00 | 0.00 | 63 | 1017.7 |
| 20260904083217 | 27 | 111 | 0.0 | 0.0 | 0.00 | 0.00 | 0.00 | 70 | 1017.9 |
| 20260904073717 | 25 | 236 | 0.0 | 0.0 | 0.00 | 0.00 | 0.00 | 74 | 1017.9 |
| 20260904070718 | 21 | 240 | 0.0 | 0.0 | 0.00 | 0.00 | 0.00 | 78 | 1018.3 |
| 20260904070217 | 21 | 238 | 0.0 | 0.0 | 0.00 | 0.00 | 0.00 | 78 | 1018.2 |
| 20260904063717 | 20 | 243 | 0.0 | 0.0 | 0.00 | 0.00 | 0.00 | 80 | 1018.4 |
| 20260904053217 | 17 | 254 | 0.0 | 0.0 | 0.00 | 0.00 | 0.00 | 79 | 1018.4 |
| 20260904050217 | 17 | 250 | 0.0 | 0.0 | 0.00 | 0.00 | 0.00 | 80 | 1018.2 |
| 20260904040216 | 17 | 250 | 0.0 | 0.0 | 0.00 | 0.00 | 0.00 | 79 | 1018.3 |
| 20260904033216 | 17 | 250 | 0.0 | 0.0 | 0.00 | 0.00 | 0.00 | 80 | 1018.6 |
| 20260904030716 | 18 | 250 | 0.0 | 0.0 | 0.00 | 0.00 | 0.00 | 80 | 1018.7 |
| 20260904030216 | 18 | 250 | 0.0 | 0.0 | 0.00 | 0.00 | 0.00 | 80 | 1018.7 |
| 20260904023716 | 18 | 250 | 0.0 | 0.0 | 0.00 | 0.00 | 0.00 | 80 | 1018.7 |
| 20260904023216 | 18 | 250 | 0.0 | 4.8 | 0.00 | 0.00 | 0.00 | 80 | 1018.6 |
| 20260904020716 | 19 | 250 | 0.0 | 0.0 | 0.00 | 0.00 | 0.00 | 80 | 1018.8 |
| 20260904003716 | 20 | 231 | 0.0 | 0.0 | 0.00 | 0.00 | 0.00 | 79 | 1019.2 |
| 20260904000716 | 20 | 228 | 0.0 | 0.0 | 0.00 | 0.00 | 0.00 | 79 | 1019.3 |
| 20260904000218 | 20 | 228 | 0.0 | 0.0 | 0.00 | 0.00 | 0.00 | 79 | 1019.4 |
| 20260903233216 | 20 | 228 | 0.0 | 0.0 | 0.00 | 0.00 | 0.00 | 79 | 1019.4 |
| 20260903230216 | 20 | 228 | 0.0 | 0.0 | 0.00 | 0.00 | 0.00 | 79 | 1019.6 |
| 20260903223716 | 21 | 228 | 0.0 | 0.0 | 0.00 | 0.00 | 0.00 | 78 | 1019.5 |
| 20260903220717 | 22 | 228 | 0.0 | 0.0 | 0.00 | 0.00 | 0.00 | 77 | 1019.2 |
| 20260903213716 | 22 | 314 | 0.0 | 0.0 | 0.00 | 0.00 | 0.00 | 77 | 1019.3 |
| 20260903210215 | 23 | 64 | 0.0 | 0.0 | 0.00 | 0.00 | 0.00 | 77 | 1019.5 |
| 20260903200715 | 25 | 87 | 0.0 | 1.6 | 0.00 | 0.00 | 0.00 | 74 | 1019.1 |
| 20260903200216 | 25 | 107 | 0.0 | 9.7 | 0.00 | 0.00 | 0.00 | 74 | 1019.4 |
| 20260903193716 | 25 | 98 | 0.0 | 0.0 | 0.00 | 0.00 | 0.00 | 73 | 1018.9 |
| 20260903190716 | 26 | 96 | 1.6 | 4.8 | 0.00 | 0.00 | 0.00 | 71 | 1018.3 |
| 20260903190216 | 26 | 108 | 0.0 | 4.8 | 0.00 | 0.00 | 0.00 | 71 | 1018.5 |
| 20260903183215 | 27 | 89 | 0.0 | 3.2 | 0.00 | 0.00 | 0.00 | 68 | 1017.9 |
| 20260903173715 | 29 | 184 | 1.6 | 4.8 | 0.00 | 0.00 | 0.00 | 63 | 1017.7 |
| 20260903173215 | 29 | 163 | 0.0 | 16.1 | 0.00 | 0.00 | 0.00 | 62 | 1017.7 |
| 20260903170215 | 31 | 216 | 3.2 | 14.5 | 0.00 | 0.00 | 0.00 | 58 | 1017.3 |
| 20260903163215 | 32 | 216 | 1.6 | 16.1 | 0.00 | 0.00 | 0.00 | 56 | 1017.2 |
| 20260903160215 | 32 | 225 | 4.8 | 24.1 | 0.00 | 0.00 | 0.00 | 51 | 1017.2 |
| 20260903153215 | 33 | 138 | 4.8 | 25.7 | 0.00 | 0.00 | 0.00 | 49 | 1017.2 |